GW3496 Weather Reports


Display with metric or nautical units.
time (UTC)temp
F
wind
direction
speed
MPH
gust
MPH
rain 1hr
in
rain 24hr
in
rain mn
in
humidity
%
barometer
mb
20260510180059 83 113 3.0 10.0 0.00 0.00 0.00 34 1011.0
20260510174545 83 229 8.0 15.0 0.00 0.00 0.00 34 1011.2
20260510173038 83 252 8.0 13.0 0.00 0.00 0.00 35 1011.1
20260510171546 82 140 7.0 14.0 0.00 0.00 0.00 36 1011.0
20260510170041 82 179 3.0 9.0 0.00 0.00 0.00 37 1011.4
20260510164546 80 221 3.0 12.0 0.00 0.00 0.00 39 1011.5
20260510163045 81 221 1.0 5.0 0.00 0.00 0.00 39 1011.7
20260510161544 80 128 0.0 7.0 0.00 0.00 0.00 40 1011.7
20260510160039 79 273 0.0 8.0 0.00 0.00 0.00 41 1011.8
20260510154539 79 235 5.0 10.0 0.00 0.00 0.00 41 1011.9
20260510153035 78 156 2.0 10.0 0.00 0.00 0.00 43 1012.0
20260510151545 78 173 3.0 10.0 0.00 0.00 0.00 43 1011.9
20260510150103 76 136 2.0 11.0 0.00 0.00 0.00 44 1012.0
20260510144540 76 232 2.0 7.0 0.00 0.00 0.00 44 1011.9
20260510143040 75 186 3.0 9.0 0.00 0.00 0.00 47 1011.8
20260510141544 75 140 2.0 8.0 0.00 0.00 0.00 48 1011.8
20260510140045 74 175 3.0 6.0 0.00 0.00 0.00 54 1011.6
20260510134539 72 184 0.0 1.0 0.00 0.00 0.00 53 1011.7
20260510133038 71 63 0.0 0.0 0.00 0.00 0.00 62 1011.6
20260510131541 70 146 0.0 0.0 0.00 0.00 0.00 60 1011.5
20260510130049 69 51 0.0 2.0 0.00 0.00 0.00 60 1011.3
20260510124559 67 309 0.0 3.0 0.00 0.00 0.00 64 1011.6
20260510123046 64 164 0.0 0.0 0.00 0.00 0.00 75 1011.4
20260510121538 62 218 0.0 0.0 0.00 0.00 0.00 80 1011.0
20260510120050 61 182 0.0 0.0 0.00 0.00 0.00 83 1011.0
20260510114552 59 182 0.0 0.0 0.00 0.00 0.00 86 1010.7
20260510113044 57 182 0.0 0.0 0.00 0.00 0.00 88 1010.5
20260510111601 56 182 0.0 0.0 0.00 0.00 0.00 88 1010.3
20260510110049 56 182 0.0 0.0 0.00 0.00 0.00 88 1010.1
20260510104547 55 182 0.0 0.0 0.00 0.00 0.00 88 1009.9
20260510103047 55 193 0.0 0.0 0.00 0.00 0.00 88 1009.7
20260510101544 55 182 0.0 0.0 0.00 0.00 0.00 87 1009.5
20260510100054 55 182 0.0 0.0 0.00 0.00 0.00 88 1009.4
20260510094559 56 332 0.0 0.0 0.00 0.00 0.00 88 1009.3
20260510093105 56 9 0.0 0.0 0.00 0.00 0.00 88 1009.1
20260510091550 56 9 0.0 0.0 0.00 0.00 0.00 88 1009.1
20260510090051 56 20 0.0 0.0 0.00 0.00 0.00 87 1008.8
20260510084546 56 309 0.0 0.0 0.00 0.00 0.00 87 1008.8
20260510083053 57 346 2.0 4.0 0.00 0.00 0.00 86 1008.8
20260510081548 58 230 1.0 4.0 0.00 0.00 0.00 86 1008.7
20260510080046 58 274 0.0 0.0 0.00 0.00 0.00 85 1008.5
20260510074552 58 126 0.0 2.0 0.00 0.00 0.00 84 1008.4
20260510073051 58 272 0.0 0.0 0.00 0.00 0.00 83 1008.2
20260510071546 59 251 0.0 0.0 0.00 0.00 0.00 82 1008.3
20260510070040 60 108 0.0 0.0 0.00 0.00 0.00 81 1008.1
20260510064943 60 190 0.0 0.0 0.00 0.00 0.00 80 1008.0
20260510063035 60 174 0.0 0.0 0.00 0.00 0.00 79 1008.2
20260510061535 61 156 0.0 0.0 0.00 0.00 0.00 78 1008.2
20260510060044 62 162 0.0 0.0 0.00 0.00 0.00 77 1008.2
20260510054541 62 284 0.0 0.0 0.00 0.00 0.00 76 1008.0
20260510053038 63 166 0.0 3.0 0.00 0.00 0.00 75 1008.0
20260510051535 63 268 2.0 5.0 0.00 0.00 0.00 74 1008.0
20260510050044 64 253 3.0 4.0 0.00 0.00 0.00 72 1008.0
20260510044532 65 261 0.0 3.0 0.00 0.00 0.00 71 1008.3
20260510043040 65 258 3.0 7.0 0.00 0.00 0.00 70 1008.1
20260510041541 66 240 4.0 7.0 0.00 0.00 0.00 70 1008.0
20260510040050 66 158 4.0 8.0 0.00 0.00 0.00 69 1007.9
20260510034542 66 201 5.0 10.0 0.00 0.00 0.00 68 1007.9
20260510033041 67 207 4.0 6.0 0.00 0.00 0.00 66 1007.7
20260510031540 67 211 4.0 8.0 0.00 0.00 0.00 64 1007.7
20260510030049 67 201 4.0 6.0 0.00 0.00 0.00 64 1007.7
20260510024534 68 165 4.0 6.0 0.00 0.00 0.00 62 1007.5
20260510023035 68 192 3.0 8.0 0.00 0.00 0.00 62 1007.4
20260510021538 69 192 2.0 6.0 0.00 0.00 0.00 61 1007.2
20260510020040 70 206 1.0 4.0 0.00 0.00 0.00 59 1007.1
20260510014538 70 184 0.0 4.0 0.00 0.00 0.00 58 1006.8
20260510013033 71 192 2.0 4.0 0.00 0.00 0.00 57 1006.5
20260510011546 71 155 1.0 5.0 0.00 0.00 0.00 56 1006.5
20260510010041 72 179 2.0 5.0 0.00 0.00 0.00 55 1006.4
20260510004542 73 175 1.0 4.0 0.00 0.00 0.00 54 1006.2
20260510003041 73 169 2.0 8.0 0.00 0.00 0.00 52 1006.1
20260510001543 74 212 4.0 8.0 0.00 0.00 0.00 51 1006.0
20260510000042 75 216 4.0 7.0 0.00 0.00 0.00 50 1005.8
20260509234543 75 201 4.0 8.0 0.00 0.00 0.00 49 1005.9
20260509233039 76 198 3.0 9.0 0.00 0.00 0.00 48 1005.9
20260509231542 76 165 5.0 13.0 0.00 0.00 0.00 47 1005.9
20260509230044 77 225 7.0 14.0 0.00 0.00 0.00 46 1005.8
20260509224542 77 205 4.0 10.0 0.00 0.00 0.00 46 1005.6
20260509223040 77 201 8.0 17.0 0.00 0.00 0.00 45 1005.7
20260509221538 76 232 7.0 12.0 0.00 0.00 0.00 46 1005.9
20260509220040 76 215 12.0 18.0 0.00 0.00 0.00 45 1005.8
20260509214540 77 219 7.0 12.0 0.00 0.00 0.00 46 1005.8
20260509213039 76 198 9.0 18.0 0.00 0.00 0.00 47 1005.8
20260509211535 76 169 5.0 12.0 0.00 0.00 0.00 46 1005.6
20260509210058 77 252 4.0 17.0 0.00 0.00 0.00 47 1005.5
20260509204541 77 122 4.0 16.0 0.00 0.00 0.00 48 1005.5
20260509203042 76 201 9.0 21.0 0.00 0.00 0.00 48 1005.5
20260509201540 76 190 7.0 18.0 0.00 0.00 0.00 50 1005.7
20260509200047 75 232 9.0 15.0 0.00 0.00 0.00 51 1006.0
20260509194542 75 244 8.0 18.0 0.00 0.00 0.00 50 1006.1
20260509193042 74 250 4.0 13.0 0.00 0.00 0.00 53 1006.3
20260509191541 72 223 5.0 14.0 0.00 0.00 0.00 56 1006.7
20260509190047 73 206 7.0 11.0 0.00 0.00 0.00 55 1006.8
20260509184546 73 224 9.0 15.0 0.00 0.00 0.00 56 1007.0
20260509183039 72 169 11.0 15.0 0.00 0.00 0.00 57 1007.2
20260509181551 72 250 8.0 17.0 0.00 0.00 0.00 56 1007.3